Fryeburg, ME

7:36 PM EDT on June 22, 2017 (GMT -0400)
Eastern Slopes Regional

Weather History for KIZG - July, 2011

Change the Weather History Date:

Saturday, July 2, 2011

  Actual Average Record
Temperature  
Mean Temperature 67 °F -  
Max Temperature 82 °F 79 °F 93 °F (2002)
Min Temperature 53 °F 53 °F 39 °F (2007)
Cooling Degree Days 2    
Growing Degree Days 17 (Base 50)    
Moisture  
Dew Point 57 °F    
Average Humidity 82    
Maximum Humidity 100    
Minimum Humidity 44    
Precipitation  
Precipitation 0.00 in - - ()
Sea Level Pressure  
Sea Level Pressure 30.05 in    
Wind  
Wind Speed 1 mph (SSE)    
Max Wind Speed 9 mph    
Max Gust Speed -    
Visibility 7 miles    
Events Fog    
Averages and records for this station are not official NWS values.
T = Trace of Precipitation, MM = Missing Value Source: NWS Daily Summary

Daily Weather History Graph

Daily Weather History Graph

Search for Another Location

Airport or City:

Trip Planner

Search our weather history database for the weather conditions in past years. The results will help you decide how hot, cold, wet, or windy it might be!

Date:

Astronomy

Jul. 02, 2011 Rise Set
Actual Time 5:05 AM EDT 8:30 PM EDT
Civil Twilight 4:29 AM EDT 9:06 PM EDT
Nautical Twilight 3:41 AM EDT 9:53 PM EDT
Astronomical Twilight 2:42 AM EDT 10:52 PM EDT
Moon 6:27 AM EDT (7/2) 9:20 PM EDT (7/2)
Length of Visible Light 16h 37m
Length of Day
15h 24m
New Moon, 2% of the Moon is Illuminated
Jul 2
New Moon
Jul 8
First Quarter
Jul 15
Full
Jul 23
Last Quarter
Jul 30
New

Hourly Weather History & Observations

Time (EDT) Temp. Heat Index Dew Point Humidity Pressure Visibility Wind Dir Wind Speed Gust Speed Precip Events Conditions
12:54 AM 57.0 °F - 55.9 °F 96% 30.05 in 8.0 mi Calm Calm - N/A   Clear
1:47 AM 55.4 °F - 55.4 °F 100% 30.05 in 2.0 mi Calm Calm - N/A   Clear
1:54 AM 55.0 °F - 55.0 °F 100% 30.05 in 8.0 mi WNW 4.6 mph - N/A   Clear
2:54 AM 54.0 °F - 54.0 °F 100% 30.07 in 2.0 mi Calm Calm - N/A   Clear
3:08 AM 55.4 °F - 53.6 °F 94% 30.07 in 3.0 mi Calm Calm - N/A   Partly Cloudy
3:54 AM 55.0 °F - 55.0 °F 100% 30.08 in 9.0 mi Calm Calm - N/A   Overcast
4:49 AM 55.4 °F - 55.4 °F 100% 30.09 in 1.8 mi Calm Calm - N/A   Partly Cloudy
4:54 AM 55.0 °F - 54.0 °F 96% 30.08 in 1.0 mi Calm Calm - N/A   Partly Cloudy
5:01 AM 53.6 °F - 53.6 °F 100% 30.08 in 2.5 mi Calm Calm - N/A   Partly Cloudy
5:07 AM 53.6 °F - 53.6 °F 100% 30.09 in 1.2 mi Calm Calm - N/A   Clear
5:15 AM 53.6 °F - 53.6 °F 100% 30.09 in 0.5 mi Calm Calm - N/A Fog Fog
5:23 AM 53.6 °F - 53.6 °F 100% 30.09 in 1.5 mi Calm Calm - N/A   Clear
5:28 AM 53.6 °F - 53.6 °F 100% 30.09 in 3.0 mi Calm Calm - N/A   Clear
5:34 AM 53.6 °F - 53.6 °F 100% 30.08 in 1.8 mi Calm Calm - N/A   Clear
5:41 AM 53.6 °F - 53.6 °F 100% 30.08 in 4.0 mi Calm Calm - N/A   Clear
5:54 AM 55.0 °F - 54.0 °F 96% 30.09 in 10.0 mi Calm Calm - N/A   Clear
6:54 AM 61.0 °F - 57.9 °F 90% 30.10 in 10.0 mi Calm Calm - N/A   Clear
7:54 AM 64.9 °F - 59.0 °F 81% 30.10 in 10.0 mi Calm Calm - N/A   Clear
9:54 AM 73.0 °F - 57.9 °F 59% 30.09 in 10.0 mi Variable 3.5 mph - N/A   Clear
10:54 AM 75.9 °F - 57.9 °F 54% 30.09 in 10.0 mi Variable 4.6 mph - N/A   Clear
1:54 PM 81.0 °F 81.0 °F 57.0 °F 44% 30.03 in 10.0 mi Variable 3.5 mph - N/A   Scattered Clouds
2:54 PM 81.0 °F 81.0 °F 57.0 °F 44% 30.01 in 10.0 mi East 5.8 mph - N/A   Clear
3:54 PM 81.0 °F 81.0 °F 57.0 °F 44% 30.00 in 10.0 mi ENE 6.9 mph - N/A   Clear
4:54 PM 81.0 °F 81.0 °F 57.0 °F 44% 29.99 in 10.0 mi SSE 8.1 mph - N/A   Partly Cloudy
5:54 PM 80.1 °F 80.9 °F 60.1 °F 50% 29.96 in 10.0 mi SE 8.1 mph - N/A   Scattered Clouds
6:54 PM 77.0 °F - 62.1 °F 60% 29.96 in 10.0 mi SSE 9.2 mph - N/A   Clear
7:54 PM 73.9 °F - 62.1 °F 66% 29.98 in 10.0 mi SSE 3.5 mph - N/A   Clear
8:54 PM 70.0 °F - 62.1 °F 76% 29.98 in 10.0 mi SE 3.5 mph - N/A   Clear
9:54 PM 68.0 °F - 61.0 °F 78% 29.98 in 10.0 mi Calm Calm - N/A   Clear
10:54 PM 66.0 °F - 60.1 °F 81% 29.97 in 10.0 mi South 4.6 mph - N/A   Clear
11:54 PM 64.0 °F - 60.1 °F 87% 29.96 in 10.0 mi South 4.6 mph - N/A   Clear